sat.trackr.live / text

‹ back to catalog

STARLINK-32090

NORAD 59691 · 2024-086K

PAYLOAD ACTIVE UNKNOWN

§ Identity

Operator
Country
US
Launch date
2024-05-08
Launch site
AFETR
Launch vehicle
Mass (kg)
RCS (m²)

Purposes: comms

External: N2YO · Heavens-Above · Gunter

§ Orbital elements

Epoch: 2026-05-24T23:19:25.201344Z

Period
94.27 min
Inclination
43.0060°
Eccentricity
0.0001361
Mean motion
15.27577843 rev/d
Perigee alt
482.1 km
Apogee alt
484.0 km
Semi-major
6,861.2 km
B*
6.5724e-5
RAAN
352.9698°
Arg perigee
255.2102°
Mean anomaly
104.8599°
Rev number
11,573

§ Raw data

STARLINK-320901 59691U 24086K   26144.97181946  .00001547  00000+0  65724-4 0  99962 59691  43.0060 352.9698 0001361 255.2102 104.8599 15.27577843115737

JSON: /api/v1/satellites/59691 · /tle

For live sub-satellite position, see the globe view (requires WebGL).

§ Visibility from observer

Set your observer location to see the next 7 days of passes ≥ 10°. The values pass through the URL so the page stays shareable.

No JS? Fill the form by hand. The geolocation button needs JavaScript.